Погода в Нонгкхае

Таиланд     17°52′57″N   102°44′31″E
темп.,
°C
ветер,
м/с
пор.,
м/с
влажн.,
%
обл.,
%
осадки,
мм/ч
давл.,
гПа
погр.,
м
21 апреля, ср
ср2101:00+28св11640 0.0 100719
04:00+27ссв22711 0.1 100740
07:00+26всв23751 0.9 1009138
10:00+33св01530 0.1 1010896
13:00+36зюз123940 0.1 10072488
16:00+36з223457 0.0 10042369
19:00+32сз34456 0.0 100596
22:00+29з225838 0.1 100846
22 апреля, чт
чт2201:00+28с23646 0.1 100755
04:00+27ссв226819 0.0 100735
07:00+28св22680 0.0 1009175
10:00+33в21503 0.0 1009984
13:00+37юз02371 0.0 10062117
16:00+38юв24285 0.0 10023004
19:00+34юв34375 0.0 100361
22:00+32ююз11407 0.0 100519
23 апреля, пт
пт2301:00+30в344844 0.0 100481
04:00+28в37625 0.0 1004173
07:00+28в47655 0.0 1007280
10:00+34в43486 0.0 1008950
13:00+38в12350 0.0 10042130
16:00+39вюв24285 0.0 10012394
19:00+34в333534 0.0 100248
22:00+31в224711 0.0 100534
24 апреля, сб
сб2401:00+30в23545 0.0 100480
04:00+28в356266 0.0 1005117
07:00+29в476316 0.0 1007301
10:00+34в33455 0.0 10081194
13:00+38в11344 0.0 10042260
16:00+39в11297 0.0 10022704
19:00+33вюв364516 0.0 1003129
22:00+32юв255029 0.2 1006147
25 апреля, вс
вс2501:00+30в33593 0.3 100563
04:00+28всв36685 0.1 1005157
07:00+28всв367397 2.0 1008216
10:00+34в225011 0.0 1009990
13:00+38юз013645 0.0 10052121
16:00+39юв223238 0.0 10022676
19:00+34ююз254679 0.3 1004184
22:00+29сз6968100 0.9 1008354